Printer-friendly version

IAU Minor Planet Center

Minor Planet Center

MPEC 2007-M44 : 2007 MC24

The following Minor Planet Electronic Circular may be linked-to from your own Web pages, but must not otherwise be redistributed electronically.


Read MPEC 2007-M43 Read MPEC 2007-M45


M.P.E.C. 2007-M44                                Issued 2007 June 26, 19:15 UT

     The Minor Planet Electronic Circulars contain information on unusual
         minor planets and routine data on comets.  They are published
   on behalf of Commission 20 of the International Astronomical Union by the
          Minor Planet Center, Smithsonian Astrophysical Observatory,
                          Cambridge, MA 02138, U.S.A.

             Prepared using the Tamkin Foundation Computer Network

                              MPC@CFA.HARVARD.EDU
          URL http://www.cfa.harvard.edu/iau/mpc.html  ISSN 1523-6714

                                   2007 MC24

Observations:
     K07M24C* C2007 06 24.34337 20 17 35.61 -17 33 59.7          19.4 V EM044691
     K07M24C  C2007 06 24.36102 20 17 36.71 -17 34 39.3          20.6 V EM044691
     K07M24C  C2007 06 24.37868 20 17 37.86 -17 35 18.0          19.4 V EM044691
     K07M24C  C2007 06 25.38068 20 18 49.51 -18 13 07.2          20.0 V EM044291
     K07M24C  C2007 06 25.38912 20 18 50.05 -18 13 26.6          20.0 V EM044291
     K07M24C  C2007 06 25.39596 20 18 50.41 -18 13 42.5          19.7 V EM044291
     K07M24C  C2007 06 25.39799 20 18 50.63 -18 13 47.6          19.9 V EM044703
     K07M24C  C2007 06 25.42544 20 18 52.40 -18 14 50.5          18.9 V EM044703
     K07M24C  C2007 06 26.35377 20 19 59.90 -18 51 25.0                 EM044291
     K07M24C  C2007 06 26.35885 20 20 00.24 -18 51 37.1                 EM044291
     K07M24C  C2007 06 26.36301 20 20 00.51 -18 51 47.0                 EM044291
     K07M24C 5C2007 06 26.37396 20 20 01.35 -18 52 13.9          19.5 R EM044673
     K07M24C 5C2007 06 26.38160 20 20 01.89 -18 52 32.9                 EM044673
     K07M24C 5C2007 06 26.38553 20 20 02.14 -18 52 41.7                 EM044673
     K07M24C 5C2007 06 26.38843 20 20 02.31 -18 52 49.4                 EM044673

Observer details:
291 LPL/Spacewatch II.  Observer J. V. Scotti.  1.8-m f/2.7 reflector + CCD.
673 Table Mountain Observatory, Wrightwood.  Observer J. Young.  0.61-m f/16
    Cassegrain + CCD.
691 Steward Observatory, Kitt Peak.  Observer A. F. Tubbiolo.  0.9-m f/3
    reflector + CCD.
703 Catalina Sky Survey.  Observer A. R. Gibbs.  Measurers E. C. Beshore,
    A. Boattini, G. J. Garradd, A. R. Gibbs, A. D. Grauer, R. E. Hill,
    R. A. Kowalski, S. M. Larson, R. H. McNaught.  0.68-m Schmidt + CCD.

Orbital elements:
2007 MC24                                                Earth MOID = 0.3118 AU
Epoch 2007 Apr. 10.0 TT = JDT 2454200.5                 MPC
M 325.08726              (2000.0)            P               Q
n   0.22576571     Peri.  243.98211     +0.90862351     +0.17411021
a   2.6711446      Node   104.01075     -0.06692684     +0.95790671
e   0.5647143      Incl.   23.03102     -0.41221852     +0.22825505
P   4.37           H   19.4           G   0.15           U   9
Residuals in seconds of arc
070624 691  0.4+  0.1+    070625 291  1.0-  0.0     070626 291  0.1-  0.2+
070624 691  0.2-  0.3-    070625 703  0.5+  0.3-    070626 673  0.1+  0.1+
070624 691  0.1-  0.2+    070625 703  0.2+  0.3+    070626 673  0.6+  0.4-
070625 291  0.4+  0.1-    070626 291  0.1-  0.1-    070626 673  0.4+  0.3+
070625 291  0.3+  0.0     070626 291  0.0   0.0     070626 673  0.1+  0.4-

Ephemeris:
2007 MC24                a,e,i = 2.67, 0.56, 23                  q = 1.1627
Date    TT    R. A. (2000) Decl.     Delta      r     Elong.  Phase     V
2007 06 19    20 11.37   -14 38.2    0.563    1.513   145.1    22.6    20.1
2007 06 29    20 23.25   -20 43.5    0.464    1.447   153.6    18.2    19.5
2007 07 09    20 37.00   -29 46.5    0.386    1.385   159.4    15.0    18.9
2007 07 19    20 55.44   -41 56.3    0.335    1.328   155.1    18.8    18.6
2007 07 29    21 25.23   -55 39.8    0.314    1.277   141.9    29.4    18.7
2007 08 08    22 21.20   -67 44.9    0.318    1.233   127.3    40.8    19.0
2007 08 18    00 05.67   -74 59.8    0.341    1.199   115.5    49.6    19.3
2007 08 28    02 11.82   -76 06.6    0.372    1.176   107.3    55.1    19.6
2007 09 07    03 28.83   -73 40.0    0.405    1.164   102.4    57.7    19.8
2007 09 17    04 00.26   -70 19.0    0.435    1.164   100.3    58.1    20.0
2007 09 27    04 07.85   -66 44.5    0.460    1.177   100.5    56.9    20.1
2007 10 07    04 02.98   -62 51.4    0.482    1.201   102.7    54.3    20.2
2007 10 17    03 51.39   -58 20.5    0.501    1.236   106.5    50.6    20.2
2007 10 27    03 37.28   -52 52.7    0.520    1.280   111.6    46.2    20.3
2007 11 06    03 23.69   -46 20.7    0.545    1.332   117.2    41.5    20.3
2007 11 16    03 12.67   -38 51.8    0.579    1.389   122.5    36.9    20.4
2007 11 26    03 05.41   -30 51.5    0.629    1.452   126.4    33.2    20.6
2007 12 06    03 02.08   -22 53.7    0.698    1.517   127.9    30.8    20.8
2007 12 16    03 02.45   -15 26.5    0.787    1.586   126.8    29.8    21.2
2007 12 26    03 06.09   -08 47.0    0.896    1.656   123.5    29.7    21.5
2008 01 05    03 12.43   -03 00.6    1.024    1.728   118.8    29.9    21.9

Gareth V. Williams           (C) Copyright 2007 MPC           M.P.E.C. 2007-M44

Read MPEC 2007-M43 Read MPEC 2007-M45


Our Web policy. Index to the CBAT/MPC/ICQ pages.


Valid HTML 4.01!